time, Switch, Flow(0), Analog(2)
yyyy/mm/dd HH:MM:SS.fff, True=FILTERED|False=TOTAL, L/min, V
2023/07/07 10:00:02.585, True, 4.717, 0.152285
2023/07/07 10:00:03.089, True, 4.643, 0.152438
2023/07/07 10:00:03.585, True, 4.043, 0.152895
2023/07/07 10:00:04.088, True, 2.653, 0.152895
2023/07/07 10:00:04.593, True, 1.328, 0.152514
2023/07/07 10:00:05.089, True, 1.011, 0.152819
2023/07/07 10:00:05.593, True, 0.994, 0.151141
2023/07/07 10:00:06.097, True, 0.995, 0.151751
2023/07/07 10:00:06.593, True, 0.674, 0.153811
2023/07/07 10:00:07.097, True, 0.663, 0.151064
2023/07/07 10:00:07.601, True, 0.995, 0.154726
2023/07/07 10:00:08.105, True, 0.663, 0.156863
2023/07/07 10:00:08.601, True, 0.674, 0.151064
2023/07/07 10:00:09.105, True, 0.995, 0.153277
2023/07/07 10:00:09.601, True, 0.674, 0.150759
2023/07/07 10:00:10.105, True, 0.663, 0.152209
2023/07/07 10:00:10.609, True, 0.663, 0.151141
2023/07/07 10:00:11.105, True, 1.011, 0.151141
2023/07/07 10:00:11.608, True, 0.663, 0.154421
2023/07/07 10:00:12.113, True, 0.996, 0.152819
2023/07/07 10:00:12.609, True, 0.673, 0.155032
2023/07/07 10:00:13.113, True, 0.663, 0.153277
2023/07/07 10:00:13.617, True, 0.995, 0.153124
2023/07/07 10:00:14.113, True, 0.674, 0.149767
2023/07/07 10:00:14.617, True, 0.663, 0.153506
2023/07/07 10:00:15.121, True, 0.663, 0.151369
2023/07/07 10:00:15.617, True, 1.011, 0.154498
2023/07/07 10:00:16.121, True, 0.663, 0.151293
2023/07/07 10:00:16.625, True, 0.663, 0.151598
2023/07/07 10:00:17.121, True, 1.011, 0.151675
2023/07/07 10:00:17.625, True, 0.663, 0.152972
2023/07/07 10:00:18.129, True, 0.663, 0.152895
2023/07/07 10:00:18.624, True, 1.011, 0.153277
2023/07/07 10:00:19.129, True, 0.663, 0.154650
2023/07/07 10:00:19.633, True, 0.663, 0.153201
2023/07/07 10:00:20.129, True, 1.011, 0.153811
2023/07/07 10:00:20.633, True, 0.663, 0.152361
2023/07/07 10:00:21.137, True, 0.663, 0.152743
2023/07/07 10:00:21.633, True, 0.674, 0.152590
2023/07/07 10:00:22.137, True, 0.995, 0.150988
2023/07/07 10:00:22.640, True, 0.663, 0.152743
2023/07/07 10:00:23.136, True, 1.011, 0.151293
2023/07/07 10:00:23.641, True, 0.663, 0.152056
2023/07/07 10:00:24.137, True, 1.011, 0.151751
2023/07/07 10:00:24.641, True, 0.663, 0.153048
2023/07/07 10:00:25.144, True, 0.995, 0.154116
2023/07/07 10:00:25.641, True, 0.674, 0.152590
2023/07/07 10:00:26.144, True, 0.663, 0.153201
2023/07/07 10:00:26.648, True, 0.663, 0.150530
2023/07/07 10:00:27.145, True, 1.011, 0.153124
2023/07/07 10:00:27.649, True, 0.663, 0.152667
2023/07/07 10:00:28.153, True, 0.663, 0.152438
2023/07/07 10:00:28.649, True, 0.674, 0.150912
2023/07/07 10:00:29.153, True, 0.995, 0.152972
2023/07/07 10:00:29.657, True, 0.665, 0.153124
2023/07/07 10:00:30.153, True, 1.009, 0.151980
2023/07/07 10:00:30.657, True, 0.663, 0.153582
2023/07/07 10:00:31.153, True, 0.674, 0.154574
2023/07/07 10:00:31.657, True, 0.995, 0.152056
2023/07/07 10:00:32.161, True, 0.663, 0.151904
2023/07/07 10:00:32.656, True, 0.674, 0.153506
2023/07/07 10:00:33.161, True, 0.995, 0.150072
2023/07/07 10:00:33.665, True, 0.663, 0.149844
2023/07/07 10:00:34.161, True, 0.674, 0.152819
2023/07/07 10:00:34.664, True, 0.995, 0.150607
2023/07/07 10:00:35.169, True, 0.663, 0.152667
2023/07/07 10:00:35.665, True, 1.011, 0.153429
2023/07/07 10:00:36.169, True, 0.663, 0.151217
2023/07/07 10:00:36.673, True, 0.663, 0.149462
2023/07/07 10:00:37.169, True, 0.674, 0.151827
2023/07/07 10:00:37.673, True, 0.995, 0.152819
2023/07/07 10:00:38.177, True, 0.663, 0.150607
2023/07/07 10:00:38.673, True, 0.674, 0.151827
2023/07/07 10:00:39.176, True, 0.995, 0.151675
2023/07/07 10:00:39.681, True, 0.663, 0.154421
2023/07/07 10:00:40.177, True, 1.011, 0.153582
2023/07/07 10:00:40.680, True, 0.663, 0.154498
2023/07/07 10:00:41.185, True, 0.664, 0.152285
2023/07/07 10:00:41.680, True, 1.011, 0.154040
2023/07/07 10:00:42.185, True, 0.663, 0.152285
2023/07/07 10:00:42.688, True, 0.995, 0.151904
2023/07/07 10:00:43.185, True, 0.674, 0.150835
2023/07/07 10:00:43.688, True, 0.663, 0.152285
2023/07/07 10:00:44.184, True, 0.674, 0.150988
2023/07/07 10:00:44.689, True, 0.996, 0.152895
2023/07/07 10:00:45.192, True, 0.663, 0.150454
2023/07/07 10:00:45.697, True, 0.664, 0.152514
2023/07/07 10:00:46.193, True, 0.674, 0.152743
2023/07/07 10:00:46.697, True, 0.994, 0.153811
2023/07/07 10:00:47.201, True, 0.664, 0.154192
2023/07/07 10:00:47.697, True, 1.011, 0.154116
2023/07/07 10:00:48.200, True, 0.662, 0.153506
2023/07/07 10:00:48.705, True, 0.664, 0.150454
2023/07/07 10:00:49.201, True, 0.674, 0.149538
2023/07/07 10:00:49.704, True, 0.993, 0.152819
2023/07/07 10:00:50.209, True, 0.664, 0.155337
2023/07/07 10:00:50.705, True, 1.010, 0.154269
2023/07/07 10:00:51.209, True, 0.663, 0.152819
2023/07/07 10:00:51.712, True, 0.663, 0.153429
2023/07/07 10:00:52.209, True, 0.674, 0.153201
2023/07/07 10:00:52.713, True, 0.995, 0.152361
2023/07/07 10:00:53.209, True, 0.674, 0.150759
2023/07/07 10:00:53.713, True, 0.663, 0.154192
2023/07/07 10:00:54.217, True, 0.995, 0.151369
2023/07/07 10:00:54.720, True, 0.664, 0.153964
2023/07/07 10:00:55.217, True, 0.673, 0.151217
2023/07/07 10:00:55.721, True, 0.995, 0.151980
2023/07/07 10:00:56.216, True, 0.674, 0.154269
2023/07/07 10:00:56.721, True, 0.663, 0.153048
2023/07/07 10:00:57.225, True, 0.995, 0.152895
2023/07/07 10:00:57.729, True, 0.664, 0.151751
2023/07/07 10:00:58.225, True, 0.673, 0.151751
2023/07/07 10:00:58.729, True, 0.663, 0.154345
2023/07/07 10:00:59.233, True, 0.664, 0.149691
2023/07/07 10:00:59.729, True, 1.010, 0.151980
2023/07/07 10:01:00.233, True, 0.663, 0.153429
2023/07/07 10:01:00.737, True, 0.995, 0.152132
2023/07/07 10:01:01.233, True, 0.674, 0.151369
2023/07/07 10:01:01.737, True, 0.663, 0.153048
2023/07/07 10:01:02.233, True, 0.674, 0.154269
2023/07/07 10:01:02.737, True, 0.996, 0.155718
2023/07/07 10:01:03.240, True, 0.663, 0.153201
2023/07/07 10:01:03.745, True, 0.664, 0.151217
2023/07/07 10:01:04.241, True, 0.673, 0.152056
2023/07/07 10:01:04.745, True, 0.663, 0.153506
2023/07/07 10:01:05.240, True, 1.011, 0.151141
2023/07/07 10:01:05.744, True, 0.663, 0.155108
2023/07/07 10:01:06.248, True, 0.663, 0.154803
2023/07/07 10:01:06.744, True, 1.011, 0.153124
2023/07/07 10:01:07.248, True, 0.663, 0.152972
2023/07/07 10:01:07.753, True, 0.663, 0.150530
2023/07/07 10:01:08.248, True, 1.011, 0.151827
2023/07/07 10:01:08.752, True, 0.663, 0.150378
2023/07/07 10:01:09.257, True, 0.663, 0.151217
2023/07/07 10:01:09.753, True, 0.675, 0.155108
2023/07/07 10:01:10.256, True, 0.993, 0.151751
2023/07/07 10:01:10.760, True, 0.663, 0.153353
2023/07/07 10:01:11.265, True, 0.663, 0.153582
2023/07/07 10:01:11.761, True, 0.675, 0.153124
2023/07/07 10:01:12.265, True, 0.993, 0.154421
2023/07/07 10:01:12.769, True, 0.663, 0.152361
2023/07/07 10:01:13.265, True, 0.675, 0.154726
2023/07/07 10:01:13.769, True, 0.993, 0.153658
2023/07/07 10:01:14.265, True, 0.674, 0.154650
2023/07/07 10:01:14.769, True, 0.664, 0.156176
2023/07/07 10:01:15.273, True, 0.663, 0.156176
2023/07/07 10:01:15.769, True, 1.011, 0.157473
2023/07/07 10:01:16.273, True, 0.663, 0.155795
2023/07/07 10:01:16.777, True, 0.663, 0.155718
2023/07/07 10:01:17.272, True, 1.011, 0.156481
2023/07/07 10:01:17.777, True, 0.663, 0.158236
2023/07/07 10:01:18.281, True, 0.664, 0.156023
2023/07/07 10:01:18.777, True, 1.010, 0.156786
2023/07/07 10:01:19.281, True, 0.663, 0.155947
2023/07/07 10:01:19.785, True, 0.663, 0.156023
2023/07/07 10:01:20.281, True, 0.675, 0.156558
2023/07/07 10:01:20.785, True, 0.994, 0.157702
2023/07/07 10:01:21.289, True, 0.663, 0.154955
2023/07/07 10:01:21.785, True, 0.674, 0.156786
2023/07/07 10:01:22.289, True, 0.996, 0.154498
2023/07/07 10:01:22.793, True, 0.664, 0.155718
2023/07/07 10:01:23.289, True, 0.673, 0.156710
2023/07/07 10:01:23.793, True, 0.663, 0.159228
2023/07/07 10:01:24.296, True, 0.996, 0.156558
2023/07/07 10:01:24.793, True, 0.673, 0.155718
2023/07/07 10:01:25.297, True, 0.663, 0.156710
2023/07/07 10:01:25.801, True, 0.995, 0.156939
2023/07/07 10:01:26.297, True, 0.674, 0.157549
2023/07/07 10:01:26.801, True, 0.663, 0.157855
2023/07/07 10:01:27.305, True, 0.995, 0.158770
2023/07/07 10:01:27.801, True, 0.674, 0.157168
2023/07/07 10:01:28.305, True, 0.663, 0.159152
2023/07/07 10:01:28.801, True, 1.011, 0.157778
2023/07/07 10:01:29.305, True, 0.663, 0.157778
2023/07/07 10:01:29.809, True, 0.663, 0.158007
2023/07/07 10:01:30.305, True, 0.674, 0.156710
2023/07/07 10:01:30.809, True, 0.995, 0.157321
2023/07/07 10:01:31.313, True, 0.664, 0.159152
2023/07/07 10:01:31.809, True, 0.673, 0.160067
2023/07/07 10:01:32.313, True, 0.996, 0.158923
2023/07/07 10:01:32.809, True, 0.673, 0.157168
2023/07/07 10:01:33.313, True, 0.663, 0.159533
2023/07/07 10:01:33.817, True, 0.663, 0.158694
2023/07/07 10:01:34.321, True, 0.995, 0.159609
2023/07/07 10:01:34.817, True, 0.674, 0.158923
2023/07/07 10:01:35.321, True, 0.663, 0.156558
2023/07/07 10:01:35.825, True, 0.995, 0.158236
2023/07/07 10:01:36.321, True, 0.674, 0.159762
2023/07/07 10:01:36.825, True, 0.663, 0.157702
2023/07/07 10:01:37.329, True, 0.664, 0.157626
2023/07/07 10:01:37.825, True, 1.010, 0.157015
2023/07/07 10:01:38.329, True, 0.663, 0.157015
2023/07/07 10:01:38.825, True, 0.674, 0.158083
2023/07/07 10:01:39.329, True, 0.663, 0.157702
2023/07/07 10:01:39.832, True, 0.995, 0.161975
2023/07/07 10:01:40.329, True, 0.674, 0.156634
2023/07/07 10:01:40.833, True, 0.663, 0.158007
2023/07/07 10:01:41.336, True, 0.995, 0.158389
2023/07/07 10:01:41.833, True, 0.674, 0.156786
2023/07/07 10:01:42.337, True, 0.663, 0.156710
2023/07/07 10:01:42.841, True, 0.995, 0.157702
2023/07/07 10:01:43.337, True, 0.674, 0.158541
2023/07/07 10:01:43.841, True, 0.663, 0.159228
2023/07/07 10:01:44.345, True, 0.995, 0.159838
2023/07/07 10:01:44.840, True, 0.674, 0.160220
2023/07/07 10:01:45.345, True, 0.663, 0.158694
2023/07/07 10:01:45.849, True, 0.996, 0.159228
2023/07/07 10:01:46.345, True, 0.674, 0.157855
2023/07/07 10:01:46.849, True, 0.993, 0.160449
2023/07/07 10:01:47.345, True, 0.674, 0.158999
2023/07/07 10:01:47.849, True, 0.663, 0.160754
2023/07/07 10:01:48.353, True, 0.663, 0.159457
2023/07/07 10:01:48.849, True, 1.011, 0.160754
2023/07/07 10:01:49.353, True, 0.663, 0.160983
2023/07/07 10:01:49.857, True, 0.663, 0.161593
2023/07/07 10:01:50.352, True, 1.011, 0.162280
2023/07/07 10:01:50.857, True, 0.663, 0.158618
2023/07/07 10:01:51.361, True, 0.995, 0.159915
2023/07/07 10:01:51.857, True, 0.675, 0.161517
2023/07/07 10:01:52.361, True, 0.662, 0.159380
2023/07/07 10:01:52.865, True, 0.664, 0.160906
2023/07/07 10:01:53.360, True, 1.009, 0.160296
2023/07/07 10:01:53.865, True, 0.663, 0.161364
2023/07/07 10:01:54.369, True, 0.663, 0.162966
2023/07/07 10:01:54.865, True, 1.011, 0.159380
2023/07/07 10:01:55.369, True, 0.663, 0.160678
2023/07/07 10:01:55.873, True, 0.663, 0.162051
2023/07/07 10:01:56.369, True, 0.674, 0.159915
2023/07/07 10:01:56.873, True, 0.995, 0.161517
2023/07/07 10:01:57.377, True, 0.663, 0.160372
2023/07/07 10:01:57.873, True, 0.674, 0.159915
2023/07/07 10:01:58.377, True, 0.995, 0.160449
2023/07/07 10:01:58.881, True, 0.663, 0.160449
2023/07/07 10:01:59.377, True, 0.674, 0.159686
2023/07/07 10:01:59.881, True, 0.995, 0.158770
2023/07/07 10:02:00.385, True, 0.663, 0.159762
2023/07/07 10:02:00.881, True, 0.674, 0.161975
2023/07/07 10:02:01.385, True, 0.995, 0.158694
2023/07/07 10:02:01.889, True, 0.663, 0.161288
2023/07/07 10:02:02.385, True, 0.674, 0.160601
2023/07/07 10:02:02.889, True, 0.995, 0.161517
2023/07/07 10:02:03.393, True, 0.663, 0.160906
2023/07/07 10:02:03.889, True, 0.674, 0.160067
2023/07/07 10:02:04.393, True, 0.994, 0.162051
2023/07/07 10:02:04.897, True, 0.663, 0.159228
2023/07/07 10:02:05.393, True, 0.674, 0.160830
2023/07/07 10:02:05.897, True, 0.995, 0.159533
2023/07/07 10:02:06.401, True, 0.664, 0.161288
2023/07/07 10:02:06.897, True, 0.673, 0.158923
2023/07/07 10:02:07.400, True, 0.663, 0.160525
2023/07/07 10:02:07.905, True, 0.995, 0.159838
2023/07/07 10:02:08.401, True, 0.674, 0.159228
2023/07/07 10:02:08.905, True, 0.663, 0.160983
2023/07/07 10:02:09.409, True, 0.663, 0.158541
2023/07/07 10:02:09.905, True, 0.674, 0.158465
2023/07/07 10:02:10.408, True, 0.996, 0.159075
2023/07/07 10:02:10.905, True, 0.673, 0.161364
2023/07/07 10:02:11.409, True, 0.663, 0.158694
2023/07/07 10:02:11.913, True, 0.995, 0.160601
2023/07/07 10:02:12.409, True, 0.674, 0.162203
2023/07/07 10:02:12.913, True, 0.663, 0.162432
2023/07/07 10:02:13.417, True, 0.663, 0.159991
2023/07/07 10:02:13.913, True, 1.011, 0.158541
2023/07/07 10:02:14.417, True, 0.664, 0.161059
2023/07/07 10:02:14.921, True, 0.662, 0.160067
2023/07/07 10:02:15.425, True, 0.663, 0.159762
2023/07/07 10:02:15.921, True, 1.011, 0.158923
2023/07/07 10:02:16.425, True, 0.663, 0.160296
2023/07/07 10:02:16.929, True, 0.995, 0.160754
2023/07/07 10:02:17.425, True, 0.674, 0.158770
2023/07/07 10:02:17.929, True, 0.663, 0.161288
2023/07/07 10:02:18.433, True, 0.663, 0.160983
2023/07/07 10:02:18.929, True, 1.011, 0.159915
2023/07/07 10:02:19.433, True, 0.665, 0.161440
2023/07/07 10:02:19.937, True, 0.662, 0.160678
2023/07/07 10:02:20.433, True, 0.674, 0.161135
2023/07/07 10:02:20.937, True, 0.663, 0.161669
2023/07/07 10:02:21.441, True, 0.995, 0.160449
2023/07/07 10:02:21.937, True, 0.674, 0.160525
2023/07/07 10:02:22.441, True, 0.663, 0.162051
2023/07/07 10:02:22.944, True, 0.663, 0.164111
2023/07/07 10:02:23.441, True, 1.012, 0.160601
2023/07/07 10:02:23.945, True, 0.663, 0.160525
2023/07/07 10:02:24.449, True, 0.663, 0.159686
2023/07/07 10:02:24.945, True, 0.674, 0.160678
2023/07/07 10:02:25.449, True, 0.663, 0.162585
2023/07/07 10:02:25.953, True, 0.995, 0.159152
2023/07/07 10:02:26.449, True, 0.674, 0.162509
2023/07/07 10:02:26.953, True, 0.663, 0.161288
2023/07/07 10:02:27.449, True, 1.011, 0.163653
2023/07/07 10:02:27.953, True, 0.663, 0.156863
2023/07/07 10:02:28.457, True, 0.664, 0.161288
2023/07/07 10:02:28.953, True, 0.673, 0.159457
2023/07/07 10:02:29.457, True, 0.995, 0.159152
2023/07/07 10:02:29.961, True, 0.663, 0.161517
2023/07/07 10:02:30.464, True, 0.663, 0.161517
2023/07/07 10:02:30.961, True, 0.674, 0.159991
2023/07/07 10:02:31.465, True, 0.663, 0.161669
2023/07/07 10:02:31.969, True, 0.995, 0.161746
2023/07/07 10:02:32.465, True, 0.674, 0.161975
2023/07/07 10:02:32.969, True, 0.664, 0.160143
2023/07/07 10:02:33.473, True, 0.993, 0.160678
2023/07/07 10:02:33.969, True, 0.674, 0.160525
2023/07/07 10:02:34.473, True, 0.663, 0.161898
2023/07/07 10:02:34.977, True, 0.995, 0.160830
2023/07/07 10:02:35.473, True, 0.674, 0.160296
2023/07/07 10:02:35.977, True, 0.663, 0.163348
2023/07/07 10:02:36.473, True, 0.674, 0.158846
2023/07/07 10:02:36.977, True, 0.995, 0.162356
2023/07/07 10:02:37.481, True, 0.663, 0.160906
2023/07/07 10:02:37.977, True, 0.674, 0.160067
2023/07/07 10:02:38.481, True, 0.663, 0.160830
2023/07/07 10:02:38.985, True, 0.663, 0.159380
2023/07/07 10:02:39.481, True, 0.674, 0.159609
2023/07/07 10:02:39.985, True, 0.995, 0.160067
2023/07/07 10:02:40.489, True, 0.663, 0.162051
2023/07/07 10:02:40.985, True, 0.674, 0.162203
2023/07/07 10:02:41.489, True, 0.663, 0.161288
2023/07/07 10:02:41.993, True, 0.995, 0.159762
2023/07/07 10:02:42.489, True, 0.674, 0.160906
2023/07/07 10:02:42.993, True, 0.663, 0.160067
2023/07/07 10:02:43.497, True, 0.663, 0.161212
2023/07/07 10:02:43.992, True, 1.011, 0.160830
2023/07/07 10:02:44.497, True, 0.663, 0.161517
2023/07/07 10:02:45.000, True, 0.663, 0.161059
2023/07/07 10:02:45.496, True, 1.011, 0.158618
2023/07/07 10:02:45.000, True, 0.663, 0.161822
2023/07/07 10:02:46.505, True, 0.664, 0.160830
2023/07/07 10:02:46.000, True, 0.674, 0.159228
2023/07/07 10:02:47.505, True, 0.995, 0.162051
2023/07/07 10:02:47.000, True, 0.674, 0.162127
2023/07/07 10:02:48.505, True, 0.663, 0.160906
2023/07/07 10:02:49.008, True, 0.663, 0.160220
2023/07/07 10:02:49.505, True, 1.011, 0.160754
2023/07/07 10:02:50.009, True, 0.663, 0.161059
2023/07/07 10:02:50.513, True, 0.664, 0.161440
2023/07/07 10:02:51.009, True, 0.673, 0.162127
2023/07/07 10:02:51.512, True, 0.995, 0.160220
2023/07/07 10:02:52.017, True, 0.663, 0.160220
2023/07/07 10:02:52.513, True, 0.674, 0.157397
2023/07/07 10:02:53.016, True, 0.664, 0.157549
2023/07/07 10:02:53.521, True, 0.995, 0.161898
2023/07/07 10:02:54.017, True, 0.673, 0.159686
2023/07/07 10:02:54.521, True, 0.663, 0.162280
2023/07/07 10:02:55.025, True, 0.663, 0.160678
2023/07/07 10:02:55.529, True, 0.995, 0.160143
2023/07/07 10:02:56.025, True, 0.675, 0.162509
2023/07/07 10:02:56.528, True, 0.993, 0.160678
2023/07/07 10:02:57.033, True, 0.664, 0.160449
2023/07/07 10:02:57.529, True, 0.674, 0.160372
2023/07/07 10:02:58.033, True, 0.663, 0.160220
2023/07/07 10:02:58.537, True, 0.663, 0.160220
2023/07/07 10:02:59.033, True, 0.675, 0.158999
2023/07/07 10:02:59.537, True, 0.662, 0.161669
2023/07/07 10:03:00.040, True, 0.996, 0.161440
2023/07/07 10:03:00.536, True, 0.673, 0.158846
2023/07/07 10:03:01.041, True, 0.663, 0.161898
2023/07/07 10:03:01.537, True, 1.011, 0.161059
2023/07/07 10:03:02.041, True, 0.663, 0.160067
2023/07/07 10:03:02.544, True, 0.663, 0.159075
2023/07/07 10:03:03.049, True, 0.663, 0.160906
2023/07/07 10:03:03.545, True, 0.674, 0.161746
2023/07/07 10:03:04.049, True, 0.995, 0.159304
2023/07/07 10:03:04.553, True, 0.663, 0.159686
2023/07/07 10:03:05.049, True, 0.674, 0.159609
2023/07/07 10:03:05.553, True, 0.663, 0.160449
2023/07/07 10:03:06.057, True, 0.663, 0.160678
2023/07/07 10:03:06.561, True, 0.995, 0.160983
2023/07/07 10:03:07.057, True, 0.674, 0.159304
2023/07/07 10:03:07.561, True, 0.663, 0.160525
2023/07/07 10:03:08.057, True, 0.674, 0.160296
2023/07/07 10:03:08.561, True, 0.995, 0.160983
2023/07/07 10:03:09.065, True, 0.663, 0.160372
2023/07/07 10:03:09.561, True, 0.674, 0.160601
2023/07/07 10:03:10.065, True, 0.995, 0.159457
2023/07/07 10:03:10.569, True, 0.663, 0.159762
2023/07/07 10:03:11.065, True, 0.674, 0.160678
2023/07/07 10:03:11.569, True, 0.663, 0.158999
2023/07/07 10:03:12.072, True, 0.995, 0.161059
2023/07/07 10:03:12.569, True, 0.674, 0.159991
2023/07/07 10:03:13.073, True, 0.663, 0.159686
2023/07/07 10:03:13.577, True, 0.995, 0.160296
2023/07/07 10:03:14.073, True, 0.674, 0.160983
2023/07/07 10:03:14.577, True, 0.663, 0.160296
2023/07/07 10:03:15.080, True, 0.995, 0.162585
2023/07/07 10:03:15.577, True, 0.674, 0.160220
2023/07/07 10:03:16.081, True, 0.663, 0.158160
2023/07/07 10:03:16.577, True, 0.674, 0.160983
2023/07/07 10:03:17.081, True, 0.663, 0.158999
2023/07/07 10:03:17.584, True, 0.995, 0.158541
2023/07/07 10:03:18.081, True, 0.674, 0.160754
2023/07/07 10:03:18.585, True, 0.663, 0.159380
2023/07/07 10:03:19.089, True, 0.663, 0.158923
2023/07/07 10:03:19.585, True, 0.674, 0.159457
2023/07/07 10:03:20.089, True, 0.995, 0.160067
2023/07/07 10:03:20.593, True, 0.663, 0.161135
2023/07/07 10:03:21.096, True, 0.664, 0.160601
2023/07/07 10:03:21.593, True, 0.673, 0.160601
2023/07/07 10:03:22.097, True, 0.663, 0.161212
2023/07/07 10:03:22.593, True, 1.011, 0.160983
2023/07/07 10:03:23.097, True, 0.663, 0.160830
2023/07/07 10:03:23.600, True, 0.663, 0.159228
2023/07/07 10:03:24.105, True, 0.663, 0.159991
2023/07/07 10:03:24.600, True, 1.011, 0.161517
2023/07/07 10:03:25.105, True, 0.663, 0.160830
2023/07/07 10:03:25.609, True, 0.663, 0.159152
2023/07/07 10:03:26.105, True, 1.011, 0.160906
2023/07/07 10:03:26.609, True, 0.663, 0.160296
2023/07/07 10:03:27.105, True, 0.674, 0.159915
2023/07/07 10:03:27.609, True, 0.663, 0.161746
2023/07/07 10:03:28.113, True, 0.663, 0.161135
2023/07/07 10:03:28.609, True, 1.011, 0.161517
2023/07/07 10:03:29.113, True, 0.663, 0.159228
2023/07/07 10:03:29.617, True, 0.663, 0.160372
2023/07/07 10:03:30.113, True, 1.011, 0.162280
2023/07/07 10:03:30.617, True, 0.663, 0.160296
2023/07/07 10:03:31.121, True, 0.663, 0.161746
2023/07/07 10:03:31.625, True, 0.664, 0.161898
2023/07/07 10:03:32.121, True, 1.009, 0.161517
2023/07/07 10:03:32.625, True, 0.663, 0.161746
2023/07/07 10:03:33.129, True, 0.663, 0.158160
2023/07/07 10:03:33.625, True, 0.675, 0.157321
2023/07/07 10:03:34.129, True, 0.993, 0.159686
2023/07/07 10:03:34.633, True, 0.663, 0.160220
2023/07/07 10:03:35.129, True, 0.674, 0.160372
2023/07/07 10:03:35.633, True, 0.663, 0.160372
2023/07/07 10:03:36.137, True, 0.663, 0.160678
2023/07/07 10:03:36.633, True, 1.011, 0.160601
2023/07/07 10:03:37.137, True, 0.663, 0.159380
2023/07/07 10:03:37.641, True, 0.663, 0.159457
2023/07/07 10:03:38.137, True, 0.674, 0.160754
2023/07/07 10:03:38.641, True, 0.663, 0.160906
2023/07/07 10:03:39.145, True, 0.995, 0.160067
2023/07/07 10:03:39.641, True, 0.674, 0.162966
2023/07/07 10:03:40.145, True, 0.663, 0.160296
2023/07/07 10:03:40.648, True, 0.995, 0.163195
2023/07/07 10:03:41.145, True, 0.674, 0.160601
2023/07/07 10:03:41.649, True, 0.663, 0.158999
2023/07/07 10:03:42.153, True, 0.995, 0.161059
2023/07/07 10:03:42.648, True, 0.674, 0.160754
2023/07/07 10:03:43.153, True, 0.663, 0.158770
2023/07/07 10:03:43.657, True, 0.663, 0.160372
2023/07/07 10:03:44.153, True, 1.011, 0.160220
2023/07/07 10:03:44.657, True, 0.663, 0.160983
2023/07/07 10:03:45.161, True, 0.663, 0.157855
2023/07/07 10:03:45.657, True, 0.674, 0.160220
2023/07/07 10:03:46.161, True, 0.663, 0.158083
2023/07/07 10:03:46.665, True, 0.995, 0.160372
2023/07/07 10:03:47.161, True, 0.674, 0.158541
2023/07/07 10:03:47.665, True, 0.665, 0.161517
2023/07/07 10:03:48.169, True, 0.993, 0.158923
2023/07/07 10:03:48.665, True, 0.674, 0.162280
2023/07/07 10:03:49.169, True, 0.663, 0.161135
2023/07/07 10:03:49.665, True, 1.011, 0.161135
2023/07/07 10:03:50.168, True, 0.663, 0.158312
2023/07/07 10:03:50.673, True, 0.663, 0.158160
2023/07/07 10:03:51.169, True, 1.011, 0.159228
2023/07/07 10:03:51.673, True, 0.663, 0.158007
2023/07/07 10:03:52.177, True, 0.663, 0.159533
2023/07/07 10:03:52.673, True, 0.674, 0.158846
2023/07/07 10:03:53.177, True, 0.663, 0.158236
2023/07/07 10:03:53.681, True, 0.663, 0.160601
2023/07/07 10:03:54.177, True, 1.011, 0.160525
2023/07/07 10:03:54.681, True, 0.663, 0.159762
2023/07/07 10:03:55.177, True, 0.674, 0.158694
2023/07/07 10:03:55.681, True, 0.995, 0.160525
2023/07/07 10:03:56.185, True, 0.663, 0.159228
2023/07/07 10:03:56.689, True, 0.663, 0.160983
2023/07/07 10:03:57.184, True, 1.013, 0.161288
2023/07/07 10:03:57.689, True, 0.662, 0.160449
2023/07/07 10:03:58.193, True, 0.663, 0.160220
2023/07/07 10:03:58.689, True, 0.674, 0.160754
2023/07/07 10:03:59.193, True, 0.995, 0.160372
2023/07/07 10:03:59.697, True, 0.663, 0.156558
2023/07/07 10:04:00.193, True, 0.674, 0.159533
2023/07/07 10:04:00.697, True, 0.663, 0.158007
2023/07/07 10:04:01.201, True, 0.663, 0.158236
2023/07/07 10:04:01.697, True, 1.011, 0.161898
2023/07/07 10:04:02.201, True, 0.663, 0.157626
2023/07/07 10:04:02.705, True, 0.663, 0.159304
2023/07/07 10:04:03.201, True, 1.011, 0.161364
2023/07/07 10:04:03.705, True, 0.663, 0.158465
2023/07/07 10:04:04.209, True, 0.664, 0.158236
2023/07/07 10:04:04.705, True, 0.673, 0.160678
2023/07/07 10:04:05.209, True, 0.995, 0.160906
2023/07/07 10:04:05.705, True, 0.674, 0.159152
2023/07/07 10:04:06.209, True, 0.663, 0.161440
2023/07/07 10:04:06.713, True, 0.995, 0.159915
2023/07/07 10:04:07.209, True, 0.674, 0.160830
2023/07/07 10:04:07.713, True, 0.663, 0.159075
2023/07/07 10:04:08.217, True, 0.663, 0.160983
2023/07/07 10:04:08.713, True, 0.674, 0.161669
2023/07/07 10:04:09.217, True, 0.995, 0.159915
2023/07/07 10:04:09.721, True, 0.664, 0.159304
2023/07/07 10:04:10.217, True, 0.673, 0.157778
2023/07/07 10:04:10.721, True, 0.995, 0.158999
2023/07/07 10:04:11.225, True, 0.663, 0.160906
2023/07/07 10:04:11.729, True, 0.663, 0.159380